Regional Weather Roundup
Issued by NWS

Home | Current Version | Previous Version | Graphics & Text | Print | Product List | Glossary On
Versions: 1 2 3 4 5 6 7 8 9 10 11 12 13 14 15 16 17 18 19 20 21 22 23 24 25 26 27 28
000
ASUS45 KBOI 190710
RWRID

IDAHO REGIONAL WEATHER ROUNDUP
NATIONAL WEATHER SERVICE BOISE ID
100 AM MDT THU APR 19 2018

NOTE: "FAIR" INDICATES FEW OR NO CLOUDS BELOW 12000 FEET
WITH NO SIGNIFICANT WEATHER AND/OR OBSTRUCTIONS TO VISIBILITY

IDZ012-014-190800-
SOUTHWEST IDAHO


CITY           SKY/WX    TMP DP  RH WIND       PRES   REMARKS
BOISE          CLOUDY    52  29  41 W7        29.93F
CALDWELL       MOCLDY    48  33  56 NW10      29.95S
MOUNTAIN HOME  CLOUDY    47  24  39 E15       29.90F
$$

IDZ016-017-190800-
SOUTHCENTRAL IDAHO


CITY           SKY/WX    TMP DP  RH WIND       PRES   REMARKS
BURLEY         CLOUDY    43  22  43 E5        29.95S
JEROME         CLOUDY    46  22  38 NE15      29.95S
TWIN FALLS     CLOUDY    42  28  57 NE3       29.94S
$$

IDZ019>023-190800-
SOUTHEAST IDAHO


CITY           SKY/WX    TMP DP  RH WIND       PRES   REMARKS
IDAHO FALLS    MOCLDY    36  28  73 N7        30.01F WCI  30
POCATELLO      CLOUDY    41  24  51 CALM      29.99S
REXBURG        MOCLDY    36  27  69 NE7       30.03F WCI  30
$$

IDZ006-010-011-018-031-032-190800-
CENTRAL IDAHO MOUNTAINS


CITY           SKY/WX    TMP DP  RH WIND       PRES   REMARKS
MCCALL         CLOUDY    35  24  64 N8        29.98S WCI  29
HAILEY         CLOUDY    41  23  48 NW7       30.01F
STANLEY          N/A     30  21  69 CALM      30.02S
SALMON         CLOUDY    42  26  53 CALM      30.04S
CHALLIS        NOT AVBL
$$

IDZ002-004-006-007-026-190800-
NORTHERN IDAHO


CITY           SKY/WX    TMP DP  RH WIND       PRES   REMARKS
LEWISTON       CLOUDY    48  37  65 SE7       30.06S
LOWELL           N/A     45  40  82 CALM      30.09S
COEUR D`ALENE  PTCLDY    37  29  72 NE10      30.12F WCI  30
MULLAN PASS    PTCLDY    31  20  63 SE9       30.08S WCI  23
$$




USA.gov is the U.S. government's official web portal to all federal, state and local government web resources and services.